Terminal Aerodrome Forecast
Issued by NWS Twin Cities, MN

Home | Current Version | Previous Version | Text Only | Print | Product List | Glossary On
Versions: 1 2 3 4 5 6 7 8 9 10 11 12 13 14 15 16 17 18 19 20 21 22 23 24 25 26 27 28 29 30 31
000
FTUS43 KMPX 060848 AAA
TAFMSP
TAF AMD
KMSP 060848Z 0609/0712 12010KT 4SM BR VCSH OVC006
     FM061400 12012G19KT 6SM BR OVC015
     FM061700 15016G25KT P6SM SCT020 BKN035
     FM062300 15015G24KT P6SM -RA VCTS SCT020 OVC030CB=

USA.gov is the U.S. government's official web portal to all federal, state and local government web resources and services.